Weather History for Marathon, FL

Change the Weather History Date:

Thursday, March 14, 2013

  Actual Average Record
Temperature  
Mean Temperature 67 °F 74 °F  
Max Temperature 73 °F 79 °F 85 °F (2008)
Min Temperature 60 °F 68 °F 60 °F (2013)
Degree Days  
Heating Degree Days 0 0  
Month to date heating degree days 19 0  
Since 1 July heating degree days 32 75  
Cooling Degree Days 2 9  
Month to date cooling degree days 49 116  
Year to date cooling degree days 644 498  
Growing Degree Days 16 (Base 50)    
Moisture  
Dew Point 47 °F    
Average Humidity 51    
Maximum Humidity 68    
Minimum Humidity 34    
Precipitation  
Precipitation 0.00 in 0.07 in 0.18 in (2003)
Month to date precipitation 0.15 1.06  
Year to date precipitation 2.53 4.88  
Snow  
Snow 0.00 in - - ()
Month to date snowfall 0.0  
Since 1 July snowfall 0.0  
Snow Depth 0.00 in    
Sea Level Pressure  
Sea Level Pressure 30.15 in    
Wind  
Wind Speed 11 mph (North)    
Max Wind Speed 18 mph    
Max Gust Speed 28 mph    
Visibility 10 miles    
Events      
T = Trace of Precipitation, MM = Missing Value Source: NWS Daily Summary

Daily Weather History Graph

Daily Weather History Graph

Search for Another Location

Airport:

Trip Planner

Search our weather history database for the weather conditions in past years. The results will help you decide how hot, cold, wet, or windy it might be!

Date:

Astronomy

Mar. 14, 2013 Rise Set
Actual Time 7:34 AM EDT 7:32 PM EDT
Civil Twilight 7:11 AM EDT 7:55 PM EDT
Nautical Twilight 6:44 AM EDT 8:22 PM EDT
Astronomical Twilight 6:18 AM EDT 8:48 PM EDT
Moon 9:09 AM EDT (3/14) 10:22 PM EDT (3/14)
Length of Visible Light 12h 44m
Length of Day
11h 58m
Waxing Crescent, 9% of the Moon is Illuminated
Mar 14
Waxing Crescent
Mar 19
First Quarter
Mar 27
Full
Apr 3
Last Quarter
Apr 10
New

Hourly Weather History & Observations

Time (EDT) Temp. Dew Point Humidity Pressure Visibility Wind Dir Wind Speed Gust Speed Precip Events Conditions
12:53 AM 68.0 °F 57.0 °F 68% 30.13 in 10.0 mi NNW 11.5 mph 20.7 mph N/A   Clear
1:53 AM 66.9 °F 55.0 °F 66% 30.12 in 10.0 mi NNW 13.8 mph 21.9 mph N/A   Clear
2:53 AM 66.0 °F 48.0 °F 52% 30.12 in 10.0 mi NNW 13.8 mph 23.0 mph N/A   Clear
3:53 AM 64.0 °F 46.0 °F 52% 30.10 in 10.0 mi North 12.7 mph 25.3 mph N/A   Clear
4:53 AM 63.0 °F 43.0 °F 48% 30.10 in 10.0 mi North 15.0 mph 24.2 mph N/A   Clear
5:53 AM 61.0 °F 44.1 °F 54% 30.10 in 10.0 mi North 15.0 mph 24.2 mph N/A   Clear
6:53 AM 61.0 °F 46.9 °F 60% 30.13 in 10.0 mi North 11.5 mph 21.9 mph N/A   Clear
7:53 AM 61.0 °F 48.0 °F 62% 30.16 in 10.0 mi North 10.4 mph 21.9 mph N/A   Clear
8:53 AM 63.0 °F 46.9 °F 56% 30.18 in 10.0 mi North 11.5 mph 25.3 mph N/A   Clear
9:53 AM 64.0 °F 46.9 °F 54% 30.20 in 10.0 mi North 13.8 mph 24.2 mph N/A   Clear
10:53 AM 64.9 °F 42.1 °F 43% 30.21 in 10.0 mi North 16.1 mph 25.3 mph N/A   Clear
11:53 AM 69.1 °F 42.1 °F 38% 30.22 in 10.0 mi North 10.4 mph 23.0 mph N/A   Clear
1:53 PM 69.1 °F 41.0 °F 36% 30.17 in 10.0 mi North 10.4 mph 18.4 mph N/A   Clear
2:53 PM 72.0 °F 41.0 °F 33% 30.15 in 10.0 mi North 10.4 mph 17.3 mph N/A   Clear
3:53 PM 72.0 °F 46.0 °F 40% 30.14 in 10.0 mi NNW 10.4 mph - N/A   Clear
4:53 PM 71.1 °F 45.0 °F 39% 30.14 in 10.0 mi NNW 6.9 mph - N/A   Clear
5:53 PM 69.1 °F 45.0 °F 42% 30.13 in 10.0 mi NNW 9.2 mph - N/A   Clear
6:53 PM 68.0 °F 46.0 °F 45% 30.14 in 10.0 mi NNW 10.4 mph - N/A   Clear
7:53 PM 66.0 °F 48.9 °F 54% 30.15 in 10.0 mi NNW 8.1 mph 16.1 mph N/A   Clear
8:53 PM 64.9 °F 50.0 °F 58% 30.16 in 10.0 mi NNW 6.9 mph - N/A   Clear
9:53 PM 66.0 °F 50.0 °F 56% 30.18 in 10.0 mi North 9.2 mph 16.1 mph N/A   Clear
10:53 PM 66.0 °F 46.0 °F 48% 30.19 in 10.0 mi NE 10.4 mph - N/A   Clear
11:53 PM 64.9 °F 46.9 °F 52% 30.19 in 10.0 mi NE 11.5 mph - N/A   Clear